Temperature
1 1 1 1 1 1 1 1 1 0 1 2 2 2 2 2 2 2 2 2 2 2 2 2 2 3 3 3 3 3 3 3 3 3 3 3 3 3
1 1 1 1 1 1 1 0 0 0 -0 1 1 1 1 1 1 1 1 2 2 2 2 2 2 2 2 2 2 2 2 2 2 2 2 2 2 2
0 0 0 0 0 0 -0 -0 -0 -0 -0 -0 0 0 0 1 1 1 1 1 1 1 1 1 1 1 1 1 1 1 2 2 2 2 2 2 2 2
-1 -1 -1 -1 -1 -1 -1 -1 -1 -1 -1 -1 -0 -0 -0 -0 -0 -0 -0 -0 0 0 0 0 0 0 0 0 0 1 1 1 1 1 1 1 1 1
-1 -1 -1 -1 -1 -1 -2 -2 -2 -2 -2 -2 -1 -1 -1 -1 -1 -1 -1 -1 -1 -1 -1 -1 -1 -1 -1 -1 -0 -0 -0 0 0 0 0 0 -0 -0
-2 -2 -2 -2 -2 -2 -2 -2 -2 -2 -2 -2 -2 -2 -2 -2 -2 -2 -2 -2 -1 -1 -1 -2 -2 -1 -1 -1 -1 -1 -1 -1 -1 -1 -1 -1 -1 -1
-3 -3 -3 -3 -3 -3 -3 -3 -3 -3 -3 -3 -3 -3 -3 -3 -3 -3 -3 -3 -2 -2 -2 -2 -2 -2 -2 -2 -2 -2 -2 -2 -2 -2 -2 -2 -2 -2
-4 -4 -4 -3 -3 -4 -3 -3 -4 -4 -4 -4 -4 -4 -3 -3 -3 -4 -4 -4 -4 -3 -3 -3 -3 -3 -3 -3 -3 -3 -3 -3 -2 -2 -2 -2 -2 -2
-5 -5 -4 -4 -4 -4 -4 -4 -4 -5 -5 -4 -4 -4 -4 -4 -4 -4 -4 -4 -4 -4 -4 -4 -4 -4 -4 -4 -4 -4 -4 -3 -3 -3 -3 -3 -3 -3
-5 -5 -5 -5 -5 -5 -5 -5 -5 -5 -5 -5 -5 -5 -5 -5 -5 -5 -5 -5 -5 -5 -5 -5 -5 -5 -4 -4 -4 -4 -4 -4 -4 -4 -4 -4 -4 -4
-6 -6 -6 -6 -6 -6 -6 -6 -6 -6 -6 -6 -6 -6 -6 -5 -5 -6 -6 -6 -6 -5 -6 -6 -6 -5 -5 -5 -5 -5 -5 -5 -5 -5 -5 -5 -5 -5
-7 -7 -7 -7 -7 -7 -7 -7 -6 -6 -6 -6 -6 -6 -6 -6 -6 -6 -6 -7 -7 -7 -6 -7 -6 -7 -7 -6 -6 -6 -6 -6 -6 -6 -6 -6 -6 -6
-8 -8 -7 -7 -7 -7 -7 -7 -7 -7 -7 -7 -7 -7 -7 -7 -7 -7 -7 -7 -7 -7 -7 -7 -7 -7 -8 -7 -7 -7 -7 -7 -7 -7 -6 -6 -6 -7
-9 -8 -8 -8 -8 -8 -8 -8 -8 -8 -8 -8 -8 -8 -8 -8 -8 -8 -7 -7 -8 -8 -8 -8 -8 -8 -8 -8 -8 -8 -7 -7 -7 -7 -7 -7 -7 -7
-9 -9 -9 -9 -9 -9 -9 -9 -9 -9 -9 -9 -9 -9 -9 -9 -9 -9 -8 -8 -8 -8 -8 -9 -9 -9 -9 -9 -9 -8 -8 -8 -8 -8 -8 -8 -8 -8
-10 -10 -10 -10 -10 -10 -10 -10 -10 -10 -10 -10 -10 -10 -10 -9 -9 -9 -9 -9 -9 -9 -9 -9 -9 -9 -9 -9 -9 -9 -9 -9 -8 -9 -9 -9 -9 -9
-11 -11 -11 -11 -11 -10 -10 -10 -10 -10 -10 -10 -10 -10 -10 -10 -10 -10 -10 -10 -10 -10 -10 -9 -9 -10 -10 -10 -10 -9 -9 -9 -9 -9 -9 -9 -9 -9
-12 -12 -12 -12 -12 -11 -11 -11 -11 -11 -11 -11 -11 -11 -11 -11 -11 -11 -11 -11 -11 -10 -10 -10 -10 -10 -10 -10 -10 -10 -10 -10 -10 -10 -10 -10 -10 -9
-12 -12 -12 -12 -12 -12 -12 -12 -12 -12 -12 -12 -12 -12 -11 -11 -11 -11 -11 -11 -11 -11 -11 -11 -11 -11 -11 -11 -11 -11 -11 -11 -11 -11 -10 -11 -11 -10
-13 -13 -13 -13 -13 -13 -13 -13 -13 -13 -12 -12 -12 -12 -12 -12 -12 -12 -12 -12 -12 -12 -11 -11 -11 -11 -11 -12 -12 -11 -11 -11 -11 -11 -11 -11 -11 -11
-14 -14 -14 -14 -13 -13 -13 -13 -13 -13 -13 -13 -13 -13 -13 -13 -12 -12 -12 -12 -12 -12 -12 -12 -11 -12 -12 -12 -12 -12 -11 -12 -12 -12 -12 -12 -12 -12
-14 -14 -14 -14 -14 -14 -14 -14 -14 -14 -14 -13 -13 -13 -13 -13 -13 -13 -13 -13 -13 -13 -12 -12 -12 -12 -12 -12 -12 -12 -12 -12 -12 -12 -12 -12 -12 -12
-15 -15 -15 -14 -14 -14 -14 -14 -14 -14 -14 -14 -14 -14 -14 -14 -14 -13 -13 -13 -13 -13 -13 -13 -13 -13 -13 -13 -13 -13 -13 -13 -13 -13 -12 -12 -12 -12
Wind_Speed
4 3 3 3 3 3 2 3 3 4 5 4 3 2 4 6 8 7 7 8 9 9 9 8 8 8 9 9 8 8 8 8 9 9 10 9 9 9
3 4 4 3 3 3 3 3 3 4 5 4 4 3 4 5 8 8 9 9 9 9 9 8 8 8 9 10 9 9 9 10 10 10 10 10 10 11
4 4 5 3 3 3 3 3 3 3 6 4 3 2 3 4 6 7 8 8 8 10 9 9 9 9 9 9 10 10 10 10 10 10 10 11 11 12
5 5 5 4 4 4 4 4 4 4 5 6 4 3 4 4 4 5 6 7 7 9 9 10 9 9 9 10 10 10 10 10 10 11 11 11 12 13
5 5 5 5 5 4 5 5 4 4 3 4 5 3 3 3 3 4 5 5 7 8 9 10 9 10 10 10 11 11 10 10 11 11 11 11 12 13
5 6 6 6 6 6 5 6 5 5 4 4 4 4 3 3 2 3 4 3 4 6 8 8 9 9 10 11 11 11 10 11 11 11 12 12 13 13
5 5 6 7 8 7 6 5 5 5 4 4 5 4 4 3 3 3 5 4 4 4 4 5 6 6 7 10 11 11 11 11 11 12 11 12 13 13
5 5 6 7 8 9 10 9 7 6 6 6 6 6 6 5 4 4 4 4 4 3 3 5 4 4 6 8 11 12 11 11 12 12 11 11 12 13
6 5 6 6 8 6 8 9 9 11 11 7 7 7 6 6 5 5 6 6 6 3 3 5 4 5 7 10 12 12 12 12 12 11 12 12 12 12
6 6 6 7 7 7 6 6 7 8 9 7 7 8 7 6 6 6 7 6 4 3 4 5 4 5 6 8 12 12 12 12 11 11 12 12 13 13
6 6 6 6 10 10 7 7 7 7 10 11 11 10 11 10 8 4 4 4 5 5 3 4 3 4 4 5 9 11 11 11 12 12 12 12 12 12
5 6 9 9 11 11 7 7 7 7 5 6 7 8 7 8 9 6 5 5 5 4 3 3 3 2 4 4 5 7 8 11 12 12 13 13 12 9
5 5 6 10 12 11 9 7 9 7 4 5 5 5 5 4 4 5 5 6 6 6 4 3 4 3 4 4 4 5 7 7 7 9 11 13 13 9
5 5 6 10 10 10 8 8 9 7 3 4 5 5 5 5 5 5 7 8 8 8 7 6 5 5 5 6 5 4 4 6 6 7 7 10 11 12
6 9 9 9 8 7 8 9 7 4 4 5 5 6 5 5 5 5 6 6 7 8 8 8 6 5 6 7 6 5 5 5 6 5 5 6 7 7
6 7 8 8 6 6 6 5 4 4 5 5 5 5 4 4 5 4 5 4 4 5 5 8 8 7 7 7 7 7 6 5 4 5 6 6 7 7
4 3 3 3 3 3 3 4 3 4 4 4 4 4 4 4 5 4 4 4 5 5 5 4 5 6 7 7 7 7 6 6 5 5 5 6 7 7
4 3 4 4 4 4 4 4 4 4 4 4 4 5 5 4 4 4 4 4 6 6 5 4 3 3 3 5 8 7 6 6 5 5 5 6 8 7
3 3 4 4 4 4 4 4 4 4 4 4 4 4 4 4 4 4 4 4 5 6 5 4 4 5 6 7 5 7 6 5 5 6 6 6 8 8
3 4 4 5 5 5 5 5 5 4 4 4 4 4 4 4 4 4 4 5 5 6 6 5 5 6 8 7 5 5 9 6 6 6 6 5 6 8
4 4 4 5 4 5 5 5 5 5 5 4 4 4 4 4 5 5 5 7 6 5 6 6 7 8 4 2 4 4 5 9 9 6 6 5 5 5
4 4 4 4 4 4 4 4 4 4 4 4 4 4 4 4 5 5 5 5 5 6 7 6 5 3 3 5 6 6 6 5 7 10 9 8 5 6
4 4 4 4 4 4 4 5 5 5 4 4 4 4 4 4 5 5 5 5 5 6 6 5 4 3 4 5 5 5 6 5 4 4 5 8 9 10
Wind_Direction
221 230 228 226 218 215 206 199 208 248 257 255 253 265 277 269 273 279 265 263 260 260 263 268 272 269 267 259 258 257 257 255 255 259 260 261 265 267
226 224 238 236 225 218 216 223 219 225 249 245 245 274 283 279 279 279 273 265 262 260 260 263 268 271 275 267 262 259 260 259 256 256 259 263 266 266
240 234 241 242 235 229 226 228 230 227 247 266 264 276 270 275 286 279 280 269 263 262 261 263 267 271 271 275 269 262 260 260 256 257 261 265 268 268
245 243 246 243 242 238 233 236 238 233 238 257 267 264 268 262 270 278 282 278 269 265 263 264 264 269 272 271 272 270 266 261 258 259 261 264 267 270
240 240 245 241 243 240 236 237 239 245 240 247 263 272 274 270 277 281 281 271 268 265 263 262 264 270 271 272 271 271 272 267 261 258 260 264 266 268
246 242 242 238 239 237 240 236 236 237 240 243 256 265 263 261 252 273 291 266 272 271 263 265 269 272 270 272 270 268 267 266 267 266 264 263 264 266
259 251 251 250 247 242 243 237 233 236 236 241 254 263 259 255 250 253 273 277 270 254 258 263 265 264 266 271 267 264 266 268 269 272 272 269 266 265
266 263 261 259 258 254 255 252 244 241 236 236 249 249 255 253 253 254 266 274 268 237 245 268 252 258 260 264 265 264 264 267 269 269 269 271 273 270
259 263 264 261 262 255 260 263 257 255 251 243 242 248 249 241 239 252 256 254 260 250 249 266 252 259 261 264 266 264 265 267 267 267 266 270 273 275
259 255 259 259 255 249 247 252 255 256 256 251 240 245 246 240 237 240 249 258 272 256 229 258 255 257 269 261 263 262 263 263 266 270 271 273 273 274
263 259 259 258 262 257 247 245 254 259 265 263 264 263 262 259 254 244 247 244 262 261 227 238 255 270 270 263 257 258 259 263 268 270 271 274 274 274
268 263 264 264 267 263 244 236 246 252 254 263 268 269 269 260 252 236 232 236 253 253 216 226 248 264 275 264 248 248 256 264 267 268 271 271 271 272
271 272 269 271 270 271 265 246 250 258 246 248 252 256 257 253 247 244 237 232 238 248 231 223 240 247 251 270 270 249 244 252 260 266 269 269 268 266
268 272 271 274 278 279 280 274 273 273 252 251 249 249 250 252 252 254 253 248 244 246 239 227 236 240 247 261 268 259 246 248 254 259 262 269 269 266
268 270 276 281 284 283 283 285 282 259 247 249 251 252 251 251 258 260 260 258 259 258 245 233 236 243 242 252 259 263 271 267 253 251 254 257 261 258
279 279 282 284 282 280 283 285 277 262 255 254 256 261 257 250 251 252 255 253 260 267 254 241 242 238 246 254 254 259 255 252 251 259 264 265 262 254
270 268 267 271 268 271 273 270 266 266 263 260 261 262 264 258 255 251 251 252 246 254 266 264 255 249 247 246 248 249 252 258 256 258 262 267 266 254
286 267 262 261 261 265 268 272 269 266 265 264 263 264 261 255 259 261 253 250 251 252 255 259 260 269 274 261 236 242 247 254 258 258 255 260 267 263
273 271 266 261 258 259 259 258 260 262 262 260 262 264 263 260 257 258 256 254 258 260 258 252 241 231 247 265 260 231 240 256 260 259 251 249 260 267
257 258 263 267 260 254 252 255 259 261 259 259 257 255 252 255 259 257 256 258 259 262 265 256 242 233 234 248 260 263 246 243 246 253 259 264 266 271
265 264 265 264 268 263 255 253 253 256 257 257 256 255 250 248 253 255 256 262 269 268 264 264 257 264 258 241 255 264 255 248 251 254 253 261 270 267
284 275 272 270 270 271 268 260 258 259 257 253 253 254 252 249 249 252 254 258 260 263 269 273 273 268 232 233 249 262 271 277 272 271 263 256 249 248
281 280 278 273 269 268 265 260 258 260 258 253 251 252 250 252 252 252 255 257 261 264 271 273 269 256 247 242 249 257 261 269 275 280 280 277 273 273
Height
1495 1496 1496 1497 1498 1499 1500 1500 1501 1499 1498 1498 1500 1500 1501 1502 1502 1502 1503 1503 1504 1504 1505 1505 1505 1506 1506 1506 1507 1507 1507 1508 1508 1509 1510 1510 1509 1509
1490 1491 1491 1492 1492 1493 1494 1495 1495 1495 1494 1493 1494 1495 1495 1496 1496 1497 1497 1498 1498 1499 1499 1499 1500 1500 1500 1501 1501 1501 1501 1502 1502 1503 1503 1503 1503 1503
1484 1485 1485 1486 1487 1487 1488 1489 1489 1490 1488 1487 1489 1489 1490 1490 1490 1490 1491 1492 1492 1493 1493 1493 1494 1494 1495 1495 1495 1495 1495 1495 1496 1496 1497 1497 1497 1497
1477 1478 1479 1480 1481 1481 1482 1482 1483 1483 1483 1482 1482 1483 1483 1484 1484 1484 1485 1486 1486 1487 1487 1487 1487 1488 1488 1488 1488 1489 1488 1489 1489 1489 1490 1490 1490 1490
1472 1472 1473 1474 1474 1475 1476 1476 1477 1477 1477 1477 1476 1477 1477 1478 1478 1478 1479 1479 1480 1481 1481 1481 1481 1481 1482 1482 1482 1482 1482 1482 1482 1483 1483 1483 1483 1484
1466 1466 1467 1467 1468 1469 1470 1470 1471 1471 1471 1471 1470 1470 1471 1471 1472 1471 1471 1473 1473 1474 1475 1475 1475 1475 1475 1475 1475 1475 1475 1475 1475 1475 1475 1476 1476 1477
1460 1460 1461 1462 1462 1462 1463 1464 1464 1464 1465 1465 1464 1464 1464 1465 1465 1465 1466 1466 1467 1468 1468 1468 1468 1468 1468 1468 1468 1468 1468 1468 1468 1468 1468 1469 1469 1469
1454 1454 1455 1455 1456 1456 1457 1457 1458 1459 1458 1458 1458 1458 1458 1459 1460 1460 1460 1460 1459 1462 1461 1461 1462 1461 1461 1461 1461 1461 1461 1461 1461 1462 1462 1462 1462 1462
1448 1448 1448 1449 1449 1449 1450 1450 1451 1452 1453 1453 1452 1452 1452 1454 1454 1454 1455 1455 1454 1455 1455 1453 1455 1454 1455 1455 1455 1455 1455 1455 1455 1455 1455 1455 1455 1454
1442 1442 1442 1443 1443 1443 1443 1443 1444 1445 1446 1447 1446 1446 1447 1448 1449 1449 1449 1449 1448 1449 1450 1448 1447 1448 1448 1448 1448 1448 1448 1448 1447 1447 1447 1447 1447 1447
1437 1437 1437 1436 1437 1437 1438 1437 1437 1438 1439 1440 1440 1440 1441 1441 1442 1443 1442 1442 1440 1441 1443 1442 1441 1441 1440 1440 1441 1441 1441 1441 1441 1440 1440 1440 1440 1440
1431 1431 1431 1431 1431 1431 1431 1431 1430 1431 1432 1432 1433 1433 1433 1434 1435 1436 1436 1435 1434 1434 1435 1436 1435 1435 1432 1432 1433 1434 1434 1434 1434 1433 1433 1433 1432 1432
1425 1424 1424 1425 1425 1425 1425 1425 1424 1425 1425 1425 1425 1425 1426 1427 1427 1428 1429 1429 1428 1427 1429 1430 1429 1428 1428 1425 1425 1426 1426 1426 1426 1425 1425 1425 1425 1425
1419 1418 1419 1419 1419 1419 1419 1418 1419 1419 1419 1418 1418 1418 1418 1419 1420 1420 1421 1422 1422 1422 1422 1423 1422 1422 1421 1419 1418 1418 1418 1418 1418 1418 1418 1417 1417 1417
1413 1413 1413 1413 1413 1412 1412 1412 1412 1412 1412 1412 1411 1411 1412 1412 1413 1413 1413 1414 1414 1414 1415 1415 1415 1415 1415 1413 1411 1411 1410 1410 1410 1410 1410 1409 1409 1409
1407 1407 1407 1407 1407 1406 1406 1406 1406 1406 1406 1406 1405 1405 1406 1406 1406 1406 1407 1406 1406 1405 1407 1408 1408 1408 1407 1406 1405 1403 1403 1403 1403 1403 1403 1402 1402 1401
1402 1401 1401 1401 1400 1400 1400 1400 1400 1400 1400 1400 1400 1399 1399 1399 1400 1400 1400 1400 1399 1398 1398 1399 1400 1400 1400 1399 1398 1397 1397 1396 1396 1396 1395 1394 1394 1394
1397 1395 1395 1395 1394 1394 1394 1394 1394 1394 1394 1394 1394 1393 1393 1393 1393 1394 1394 1394 1393 1392 1392 1392 1393 1393 1392 1392 1392 1391 1390 1389 1389 1389 1388 1386 1385 1385
1392 1390 1389 1389 1389 1389 1388 1388 1388 1388 1388 1388 1388 1387 1388 1388 1388 1388 1388 1388 1387 1386 1386 1386 1386 1386 1385 1383 1383 1385 1384 1383 1382 1381 1381 1380 1378 1377
1386 1385 1384 1384 1383 1383 1383 1383 1383 1383 1382 1382 1382 1382 1382 1382 1382 1382 1382 1381 1381 1380 1379 1379 1379 1379 1379 1378 1376 1376 1378 1376 1375 1374 1373 1372 1371 1371
1381 1380 1379 1379 1378 1378 1378 1377 1377 1377 1377 1377 1377 1376 1376 1376 1376 1376 1376 1375 1375 1374 1373 1372 1372 1374 1373 1373 1371 1369 1370 1371 1370 1368 1366 1365 1364 1363
1376 1376 1375 1374 1374 1373 1373 1372 1372 1371 1371 1371 1371 1371 1371 1371 1371 1370 1370 1369 1368 1368 1367 1367 1367 1367 1367 1366 1364 1363 1362 1362 1362 1362 1362 1360 1358 1356
1372 1371 1371 1370 1369 1368 1368 1367 1366 1366 1366 1366 1365 1365 1365 1365 1365 1365 1364 1364 1363 1362 1361 1361 1361 1361 1360 1360 1359 1357 1356 1355 1354 1354 1354 1354 1354 1353